Time,TemperatureF,DewpointF,PressureIn,WindDirection,WindDirectionDegrees,WindSpeedMPH,WindSpeedGustMPH,Humidity,HourlyPrecipIn,Conditions,Clouds,dailyrainin,SoftwareType,DateUTC
2013-02-13 00:04:00,33.0,26.6,29.79,SSW,202,4.0,10.0,77,0.00,,,0.00,Weather View 32 v70,2013-02-13 05:04:00,
2013-02-13 00:09:00,33.0,26.6,29.78,SE,135,3.0,10.0,77,0.00,,,0.00,Weather View 32 v70,2013-02-13 05:09:00,
2013-02-13 00:14:00,32.0,25.6,29.78,SE,135,6.0,10.0,77,0.00,,,0.00,Weather View 32 v70,2013-02-13 05:14:00,
2013-02-13 00:24:00,32.0,25.3,29.80,SSE,158,3.0,10.0,76,0.00,,,0.00,Weather View 32 v70,2013-02-13 05:24:00,
2013-02-13 00:29:00,32.0,25.3,29.80,SW,225,3.0,11.0,76,0.00,,,0.00,Weather View 32 v70,2013-02-13 05:29:00,
2013-02-13 00:34:00,32.0,25.6,29.80,WSW,248,3.0,11.0,77,0.00,,,0.00,Weather View 32 v70,2013-02-13 05:34:00,
2013-02-13 00:42:00,32.0,25.3,29.80,WSW,248,2.0,11.0,76,0.00,,,0.00,Weather View 32 v70,2013-02-13 05:42:00,
2013-02-13 00:49:00,32.0,25.0,29.79,SSE,158,3.0,11.0,75,0.00,,,0.00,Weather View 32 v70,2013-02-13 05:49:00,
2013-02-13 00:59:00,32.0,25.0,29.79,SSE,158,4.0,11.0,75,0.00,,,0.00,Weather View 32 v70,2013-02-13 05:59:00,
2013-02-13 01:04:00,32.0,25.0,29.80,SW,225,1.0,11.0,75,0.00,,,0.00,Weather View 32 v70,2013-02-13 06:04:00,
2013-02-13 01:14:00,32.0,24.6,29.80,SSE,158,6.0,11.0,74,0.00,,,0.00,Weather View 32 v70,2013-02-13 06:14:00,
2013-02-13 01:24:00,31.0,23.7,29.80,South,180,4.0,11.0,74,0.00,,,0.00,Weather View 32 v70,2013-02-13 06:24:00,
2013-02-13 01:34:00,31.0,24.0,29.80,SW,225,5.0,10.0,75,0.00,,,0.00,Weather View 32 v70,2013-02-13 06:34:00,
2013-02-13 01:42:00,31.0,23.7,29.80,SW,225,3.0,10.0,74,0.00,,,0.00,Weather View 32 v70,2013-02-13 06:42:00,
2013-02-13 01:49:00,31.0,23.7,29.80,WNW,292,2.0,8.0,74,0.00,,,0.00,Weather View 32 v70,2013-02-13 06:49:00,
2013-02-13 01:54:00,31.0,23.7,29.79,SSE,158,2.0,8.0,74,0.00,,,0.00,Weather View 32 v70,2013-02-13 06:54:00,
2013-02-13 02:04:00,31.0,23.4,29.78,South,180,6.0,11.0,73,0.00,,,0.00,Weather View 32 v70,2013-02-13 07:04:00,
2013-02-13 02:09:00,31.0,23.4,29.78,SSW,202,5.0,12.0,73,0.00,,,0.00,Weather View 32 v70,2013-02-13 07:09:00,
2013-02-13 02:19:00,31.0,23.4,29.77,SSE,158,3.0,12.0,73,0.00,,,0.00,Weather View 32 v70,2013-02-13 07:19:00,
2013-02-13 02:24:00,31.0,23.4,29.78,SE,135,3.0,12.0,73,0.01,,,0.01,Weather View 32 v70,2013-02-13 07:24:00,
2013-02-13 02:34:00,31.0,23.4,29.79,SE,135,1.0,12.0,73,0.01,,,0.01,Weather View 32 v70,2013-02-13 07:34:00,
2013-02-13 02:43:00,30.0,22.7,29.79,SSW,202,1.0,12.0,74,0.01,,,0.01,Weather View 32 v70,2013-02-13 07:43:00,
2013-02-13 02:49:00,30.0,22.7,29.79,South,180,3.0,12.0,74,0.01,,,0.01,Weather View 32 v70,2013-02-13 07:49:00,
2013-02-13 02:54:00,30.0,22.7,29.79,SSE,158,5.0,12.0,74,0.01,,,0.01,Weather View 32 v70,2013-02-13 07:54:00,
2013-02-13 03:04:00,30.0,22.7,29.78,WSW,248,4.0,12.0,74,0.01,,,0.01,Weather View 32 v70,2013-02-13 08:04:00,
2013-02-13 03:09:00,30.0,23.0,29.78,South,180,3.0,11.0,75,0.01,,,0.01,Weather View 32 v70,2013-02-13 08:09:00,
2013-02-13 03:19:00,30.0,22.7,29.78,South,180,5.0,11.0,74,0.01,,,0.01,Weather View 32 v70,2013-02-13 08:19:00,
2013-02-13 03:29:00,30.0,23.0,29.78,South,180,1.0,11.0,75,0.00,,,0.01,Weather View 32 v70,2013-02-13 08:29:00,
2013-02-13 03:34:00,30.0,23.4,29.79,South,180,5.0,10.0,76,0.00,,,0.01,Weather View 32 v70,2013-02-13 08:34:00,
2013-02-13 03:39:00,30.0,23.0,29.78,WNW,292,4.0,14.0,75,0.00,,,0.01,Weather View 32 v70,2013-02-13 08:39:00,
2013-02-13 03:49:00,30.0,22.7,29.79,SSE,158,5.0,14.0,74,0.00,,,0.01,Weather View 32 v70,2013-02-13 08:49:00,
2013-02-13 03:59:00,30.0,22.7,29.79,SW,225,4.0,14.0,74,0.00,,,0.01,Weather View 32 v70,2013-02-13 08:59:00,
2013-02-13 04:04:00,30.0,22.7,29.79,WNW,292,6.0,14.0,74,0.00,,,0.01,Weather View 32 v70,2013-02-13 09:04:00,
2013-02-13 04:14:00,30.0,22.7,29.79,West,270,6.0,14.0,74,0.00,,,0.01,Weather View 32 v70,2013-02-13 09:14:00,
2013-02-13 04:24:00,30.0,22.7,29.80,WSW,248,2.0,14.0,74,0.00,,,0.01,Weather View 32 v70,2013-02-13 09:24:00,
2013-02-13 04:34:00,30.0,22.7,29.79,SSW,202,1.0,14.0,74,0.00,,,0.01,Weather View 32 v70,2013-02-13 09:34:00,
2013-02-13 04:44:00,30.0,22.7,29.80,West,270,6.0,13.0,74,0.00,,,0.01,Weather View 32 v70,2013-02-13 09:44:00,
2013-02-13 04:54:00,30.0,22.7,29.80,SW,225,3.0,13.0,74,0.00,,,0.01,Weather View 32 v70,2013-02-13 09:54:00,
2013-02-13 04:59:00,30.0,22.7,29.81,South,180,3.0,13.0,74,0.00,,,0.01,Weather View 32 v70,2013-02-13 09:59:00,
2013-02-13 05:09:00,30.0,22.7,29.80,South,180,7.0,14.0,74,0.00,,,0.01,Weather View 32 v70,2013-02-13 10:09:00,
2013-02-13 05:14:00,30.0,22.4,29.80,WNW,292,3.0,14.0,73,0.00,,,0.01,Weather View 32 v70,2013-02-13 10:14:00,
2013-02-13 05:19:00,29.0,21.4,29.80,South,180,4.0,14.0,73,0.00,,,0.01,Weather View 32 v70,2013-02-13 10:19:00,
2013-02-13 05:24:00,29.0,21.4,29.80,WNW,292,3.0,14.0,73,0.00,,,0.01,Weather View 32 v70,2013-02-13 10:24:00,
2013-02-13 05:30:00,30.0,22.4,29.81,SSE,158,3.0,14.0,73,0.00,,,0.01,Weather View 32 v70,2013-02-13 10:30:00,
2013-02-13 05:39:00,29.0,21.4,29.81,SSE,158,5.0,14.0,73,0.00,,,0.01,Weather View 32 v70,2013-02-13 10:39:00,
2013-02-13 05:49:00,29.0,21.4,29.81,SW,225,5.0,14.0,73,0.00,,,0.01,Weather View 32 v70,2013-02-13 10:49:00,
2013-02-13 05:54:00,29.0,21.4,29.81,SE,135,3.0,14.0,73,0.00,,,0.01,Weather View 32 v70,2013-02-13 10:54:00,
2013-02-13 06:04:00,29.0,21.8,29.81,SSW,202,3.0,14.0,74,0.00,,,0.01,Weather View 32 v70,2013-02-13 11:04:00,
2013-02-13 06:09:00,29.0,21.4,29.81,SW,225,5.0,14.0,73,0.00,,,0.01,Weather View 32 v70,2013-02-13 11:09:00,
2013-02-13 06:19:00,29.0,21.8,29.80,WNW,292,2.0,14.0,74,0.00,,,0.01,Weather View 32 v70,2013-02-13 11:19:00,
2013-02-13 06:24:00,29.0,21.4,29.80,West,270,6.0,14.0,73,0.00,,,0.01,Weather View 32 v70,2013-02-13 11:24:00,
2013-02-13 06:29:00,29.0,21.4,29.80,WNW,292,3.0,14.0,73,0.00,,,0.01,Weather View 32 v70,2013-02-13 11:29:00,
2013-02-13 06:39:00,29.0,21.4,29.80,WSW,248,7.0,17.0,73,0.00,,,0.01,Weather View 32 v70,2013-02-13 11:39:00,
2013-02-13 06:49:00,29.0,21.4,29.81,West,270,6.0,17.0,73,0.00,,,0.01,Weather View 32 v70,2013-02-13 11:49:00,
2013-02-13 06:59:00,29.0,21.4,29.82,SW,225,1.0,17.0,73,0.00,,,0.01,Weather View 32 v70,2013-02-13 11:59:00,
2013-02-13 07:04:00,29.0,21.8,29.81,SE,135,3.0,17.0,74,0.00,,,0.01,Weather View 32 v70,2013-02-13 12:04:00,
2013-02-13 07:09:00,29.0,22.1,29.82,SE,135,0.0,17.0,75,0.00,,,0.01,Weather View 32 v70,2013-02-13 12:09:00,
2013-02-13 07:19:00,29.0,22.1,29.82,SSE,158,1.0,17.0,75,0.00,,,0.01,Weather View 32 v70,2013-02-13 12:19:00,
2013-02-13 07:29:00,29.0,22.4,29.82,SSE,158,2.0,17.0,76,0.00,,,0.01,Weather View 32 v70,2013-02-13 12:29:00,
2013-02-13 07:39:00,29.0,22.4,29.83,South,180,5.0,11.0,76,0.00,,,0.01,Weather View 32 v70,2013-02-13 12:39:00,
2013-02-13 07:49:00,29.0,22.4,29.83,SE,135,2.0,11.0,76,0.00,,,0.01,Weather View 32 v70,2013-02-13 12:49:00,
2013-02-13 07:59:00,30.0,22.7,29.83,SSE,158,5.0,8.0,74,0.00,,,0.01,Weather View 32 v70,2013-02-13 12:59:00,
2013-02-13 08:04:00,30.0,22.4,29.83,SSE,158,3.0,8.0,73,0.00,,,0.01,Weather View 32 v70,2013-02-13 13:04:00,
2013-02-13 08:09:00,30.0,22.7,29.84,SSE,158,1.0,8.0,74,0.00,,,0.01,Weather View 32 v70,2013-02-13 13:09:00,
2013-02-13 08:14:00,30.0,22.4,29.84,SSE,158,3.0,8.0,73,0.00,,,0.01,Weather View 32 v70,2013-02-13 13:14:00,
2013-02-13 08:24:00,31.0,23.0,29.84,SE,135,1.0,9.0,72,0.00,,,0.01,Weather View 32 v70,2013-02-13 13:24:00,
2013-02-13 08:29:00,31.0,23.0,29.84,South,180,3.0,9.0,72,0.00,,,0.01,Weather View 32 v70,2013-02-13 13:29:00,
2013-02-13 08:39:00,31.0,23.0,29.84,SE,135,4.0,10.0,72,0.00,,,0.01,Weather View 32 v70,2013-02-13 13:39:00,
2013-02-13 08:49:00,31.0,23.0,29.84,SE,135,1.0,10.0,72,0.00,,,0.01,Weather View 32 v70,2013-02-13 13:49:00,
2013-02-13 08:59:00,32.0,23.7,29.84,SE,135,5.0,10.0,71,0.00,,,0.01,Weather View 32 v70,2013-02-13 13:59:00,
2013-02-13 09:09:00,32.0,23.7,29.84,WNW,292,1.0,10.0,71,0.00,,,0.01,Weather View 32 v70,2013-02-13 14:09:00,
2013-02-13 09:19:00,33.0,24.3,29.84,SSW,202,1.0,10.0,70,0.00,,,0.01,Weather View 32 v70,2013-02-13 14:19:00,
2013-02-13 09:29:00,33.0,23.2,29.84,SSW,202,3.0,10.0,67,0.00,,,0.01,Weather View 32 v70,2013-02-13 14:29:00,
2013-02-13 09:34:00,33.0,23.2,29.84,SW,225,3.0,10.0,67,0.00,,,0.01,Weather View 32 v70,2013-02-13 14:34:00,
2013-02-13 09:44:00,34.0,24.2,29.84,West,270,3.0,10.0,67,0.00,,,0.01,Weather View 32 v70,2013-02-13 14:44:00,
2013-02-13 09:49:00,34.0,24.2,29.84,West,270,2.0,10.0,67,0.00,,,0.01,Weather View 32 v70,2013-02-13 14:49:00,
2013-02-13 09:59:00,34.0,23.5,29.83,West,270,5.0,11.0,65,0.00,,,0.01,Weather View 32 v70,2013-02-13 14:59:00,
2013-02-13 10:09:00,34.0,23.5,29.83,WSW,248,1.0,11.0,65,0.01,,,0.02,Weather View 32 v70,2013-02-13 15:09:00,
2013-02-13 10:14:00,34.0,23.8,29.83,West,270,3.0,11.0,66,0.01,,,0.02,Weather View 32 v70,2013-02-13 15:14:00,
2013-02-13 10:24:00,34.0,23.5,29.83,West,270,3.0,14.0,65,0.01,,,0.02,Weather View 32 v70,2013-02-13 15:24:00,
2013-02-13 10:33:00,34.0,23.5,29.83,South,180,1.0,14.0,65,0.01,,,0.02,Weather View 32 v70,2013-02-13 15:33:00,
2013-02-13 10:39:00,34.0,23.1,29.83,WSW,248,6.0,14.0,64,0.01,,,0.02,Weather View 32 v70,2013-02-13 15:39:00,
2013-02-13 10:49:00,34.0,23.1,29.83,SSE,158,3.0,14.0,64,0.01,,,0.02,Weather View 32 v70,2013-02-13 15:49:00,
2013-02-13 10:54:00,34.0,22.7,29.82,West,270,3.0,14.0,63,0.01,,,0.02,Weather View 32 v70,2013-02-13 15:54:00,
2013-02-13 11:04:00,34.0,22.7,29.82,SW,225,1.0,14.0,63,0.01,,,0.02,Weather View 32 v70,2013-02-13 16:04:00,
2013-02-13 11:09:00,35.0,23.7,29.82,South,180,3.0,14.0,63,0.00,,,0.02,Weather View 32 v70,2013-02-13 16:09:00,
2013-02-13 11:19:00,35.0,23.3,29.82,SW,225,4.0,14.0,62,0.00,,,0.02,Weather View 32 v70,2013-02-13 16:19:00,
2013-02-13 11:29:00,35.0,23.3,29.81,SE,135,3.0,12.0,62,0.00,,,0.02,Weather View 32 v70,2013-02-13 16:29:00,
2013-02-13 11:34:00,35.0,23.3,29.81,SE,135,4.0,12.0,62,0.00,,,0.02,Weather View 32 v70,2013-02-13 16:34:00,
2013-02-13 11:44:00,35.0,22.9,29.81,SW,225,1.0,12.0,61,0.01,,,0.03,Weather View 32 v70,2013-02-13 16:44:00,
2013-02-13 11:49:00,35.0,22.9,29.81,SSW,202,2.0,12.0,61,0.01,,,0.03,Weather View 32 v70,2013-02-13 16:49:00,
2013-02-13 11:59:00,36.0,23.8,29.81,West,270,5.0,12.0,61,0.01,,,0.03,Weather View 32 v70,2013-02-13 16:59:00,
2013-02-13 12:09:00,36.0,23.0,29.80,WSW,248,1.0,11.0,59,0.01,,,0.03,Weather View 32 v70,2013-02-13 17:09:00,
2013-02-13 12:19:00,36.0,23.0,29.80,WNW,292,4.0,11.0,59,0.01,,,0.03,Weather View 32 v70,2013-02-13 17:19:00,
2013-02-13 12:29:00,36.0,22.2,29.80,SW,225,4.0,11.0,57,0.01,,,0.03,Weather View 32 v70,2013-02-13 17:29:00,
2013-02-13 12:34:00,36.0,22.6,29.80,West,270,2.0,11.0,58,0.01,,,0.03,Weather View 32 v70,2013-02-13 17:34:00,
2013-02-13 12:44:00,36.0,23.0,29.80,SW,225,3.0,11.0,59,0.00,,,0.03,Weather View 32 v70,2013-02-13 17:44:00,
2013-02-13 12:49:00,36.0,23.0,29.79,WNW,292,1.0,11.0,59,0.00,,,0.03,Weather View 32 v70,2013-02-13 17:49:00,
2013-02-13 12:59:00,37.0,23.2,29.80,West,270,3.0,11.0,57,0.01,,,0.04,Weather View 32 v70,2013-02-13 17:59:00,
2013-02-13 13:09:00,37.0,21.9,29.79,West,270,5.0,11.0,54,0.01,,,0.04,Weather View 32 v70,2013-02-13 18:09:00,
2013-02-13 13:19:00,37.0,22.7,29.79,South,180,5.0,11.0,56,0.01,,,0.04,Weather View 32 v70,2013-02-13 18:19:00,
2013-02-13 13:24:00,37.0,22.7,29.79,SE,135,2.0,11.0,56,0.01,,,0.04,Weather View 32 v70,2013-02-13 18:24:00,
2013-02-13 13:29:00,37.0,22.3,29.79,West,270,3.0,11.0,55,0.01,,,0.04,Weather View 32 v70,2013-02-13 18:29:00,
2013-02-13 13:34:00,38.0,23.7,29.79,WSW,248,2.0,11.0,56,0.02,,,0.05,Weather View 32 v70,2013-02-13 18:34:00,
2013-02-13 13:44:00,39.0,24.2,29.79,South,180,5.0,10.0,55,0.02,,,0.05,Weather View 32 v70,2013-02-13 18:44:00,
2013-02-13 13:49:00,39.0,23.3,29.79,WNW,292,1.0,10.0,53,0.02,,,0.05,Weather View 32 v70,2013-02-13 18:49:00,
2013-02-13 13:59:00,38.0,23.2,29.79,West,270,3.0,10.0,55,0.01,,,0.05,Weather View 32 v70,2013-02-13 18:59:00,
2013-02-13 14:09:00,38.0,23.2,29.79,SW,225,1.0,10.0,55,0.02,,,0.06,Weather View 32 v70,2013-02-13 19:09:00,
2013-02-13 14:19:00,38.0,23.7,29.79,South,180,2.0,10.0,56,0.02,,,0.06,Weather View 32 v70,2013-02-13 19:19:00,
2013-02-13 14:24:00,37.0,23.2,29.79,WNW,292,2.0,10.0,57,0.02,,,0.06,Weather View 32 v70,2013-02-13 19:24:00,
2013-02-13 14:34:00,38.0,23.7,29.79,WSW,248,4.0,10.0,56,0.01,,,0.06,Weather View 32 v70,2013-02-13 19:34:00,
2013-02-13 14:39:00,37.0,21.9,29.79,SW,225,4.0,10.0,54,0.01,,,0.06,Weather View 32 v70,2013-02-13 19:39:00,
2013-02-13 14:49:00,37.0,22.7,29.79,West,270,2.0,10.0,56,0.02,,,0.07,Weather View 32 v70,2013-02-13 19:49:00,
2013-02-13 14:59:00,37.0,23.6,29.78,West,270,3.0,10.0,58,0.02,,,0.07,Weather View 32 v70,2013-02-13 19:59:00,
2013-02-13 15:09:00,36.0,22.6,29.78,SW,225,2.0,10.0,58,0.01,,,0.07,Weather View 32 v70,2013-02-13 20:09:00,
2013-02-13 15:14:00,36.0,22.6,29.77,SE,135,2.0,10.0,58,0.01,,,0.07,Weather View 32 v70,2013-02-13 20:14:00,
2013-02-13 15:24:00,36.0,22.2,29.77,WSW,248,3.0,10.0,57,0.01,,,0.07,Weather View 32 v70,2013-02-13 20:24:00,
2013-02-13 15:34:00,36.0,22.2,29.77,SSE,158,1.0,10.0,57,0.01,,,0.07,Weather View 32 v70,2013-02-13 20:34:00,
2013-02-13 15:39:00,36.0,21.4,29.77,WNW,292,2.0,10.0,55,0.01,,,0.07,Weather View 32 v70,2013-02-13 20:39:00,
2013-02-13 15:49:00,36.0,21.8,29.77,South,180,1.0,10.0,56,0.00,,,0.07,Weather View 32 v70,2013-02-13 20:49:00,
2013-02-13 15:59:00,36.0,21.8,29.77,South,180,1.0,8.0,56,0.00,,,0.07,Weather View 32 v70,2013-02-13 20:59:00,
2013-02-13 16:04:00,35.0,20.9,29.76,WSW,248,1.0,8.0,56,0.00,,,0.07,Weather View 32 v70,2013-02-13 21:04:00,
2013-02-13 16:14:00,35.0,21.3,29.76,WNW,292,2.0,8.0,57,0.00,,,0.07,Weather View 32 v70,2013-02-13 21:14:00,
2013-02-13 16:24:00,35.0,22.1,29.76,South,180,1.0,8.0,59,0.00,,,0.07,Weather View 32 v70,2013-02-13 21:24:00,
2013-02-13 16:29:00,35.0,21.3,29.76,WSW,248,1.0,8.0,57,0.00,,,0.07,Weather View 32 v70,2013-02-13 21:29:00,
2013-02-13 16:36:00,35.0,21.3,29.76,SE,135,0.0,8.0,57,0.00,,,0.07,Weather View 32 v70,2013-02-13 21:36:00,
2013-02-13 16:44:00,35.0,21.7,29.76,SSE,158,1.0,6.0,58,0.00,,,0.07,Weather View 32 v70,2013-02-13 21:44:00,
2013-02-13 16:54:00,35.0,23.3,29.76,SW,225,1.0,6.0,62,0.00,,,0.07,Weather View 32 v70,2013-02-13 21:54:00,
2013-02-13 17:04:00,34.0,23.1,29.76,West,270,0.0,6.0,64,0.00,,,0.07,Weather View 32 v70,2013-02-13 22:04:00,
2013-02-13 17:14:00,34.0,24.9,29.79,SW,225,1.0,6.0,69,0.00,,,0.07,Weather View 32 v70,2013-02-13 22:14:00,
2013-02-13 17:19:00,33.0,25.3,29.78,SE,135,1.0,6.0,73,0.00,,,0.07,Weather View 32 v70,2013-02-13 22:19:00,
2013-02-13 17:29:00,33.0,25.3,29.77,WSW,248,0.0,3.0,73,0.00,,,0.07,Weather View 32 v70,2013-02-13 22:29:00,
2013-02-13 17:37:00,32.0,24.3,29.77,WSW,248,0.0,3.0,73,0.00,,,0.07,Weather View 32 v70,2013-02-13 22:37:00,
2013-02-13 17:44:00,32.0,24.6,29.76,WSW,248,0.0,3.0,74,0.00,,,0.07,Weather View 32 v70,2013-02-13 22:44:00,
2013-02-13 17:49:00,32.0,25.3,29.76,SE,135,0.0,3.0,76,0.00,,,0.07,Weather View 32 v70,2013-02-13 22:49:00,
2013-02-13 17:59:00,32.0,25.9,29.76,West,270,0.0,3.0,78,0.00,,,0.07,Weather View 32 v70,2013-02-13 22:59:00,
2013-02-13 18:04:00,31.0,25.3,29.76,WSW,248,0.0,3.0,79,0.00,,,0.07,Weather View 32 v70,2013-02-13 23:04:00,
2013-02-13 18:14:00,30.0,24.3,29.76,WNW,292,0.0,2.0,79,0.00,,,0.07,Weather View 32 v70,2013-02-13 23:14:00,
2013-02-13 18:19:00,30.0,24.3,29.76,WNW,292,0.0,1.0,79,0.00,,,0.07,Weather View 32 v70,2013-02-13 23:19:00,
2013-02-13 18:24:00,30.0,24.3,29.76,West,270,0.0,1.0,79,0.00,,,0.07,Weather View 32 v70,2013-02-13 23:24:00,
2013-02-13 18:34:00,29.0,23.3,29.75,WNW,292,0.0,1.0,79,0.00,,,0.07,Weather View 32 v70,2013-02-13 23:34:00,
2013-02-13 18:39:00,28.0,22.9,29.76,West,270,0.0,1.0,81,0.00,,,0.07,Weather View 32 v70,2013-02-13 23:39:00,
2013-02-13 18:49:00,28.0,23.5,29.75,WNW,292,0.0,1.0,83,0.00,,,0.07,Weather View 32 v70,2013-02-13 23:49:00,
2013-02-13 18:59:00,27.0,22.5,29.75,SW,225,0.0,0.0,83,0.00,,,0.07,Weather View 32 v70,2013-02-13 23:59:00,
2013-02-13 19:04:00,27.0,22.8,29.75,WSW,248,0.0,0.0,84,0.00,,,0.07,Weather View 32 v70,2013-02-14 00:04:00,
2013-02-13 19:14:00,26.0,21.8,29.76,SE,135,0.0,1.0,84,0.00,,,0.07,Weather View 32 v70,2013-02-14 00:14:00,
2013-02-13 19:24:00,26.0,21.8,29.76,South,180,0.0,1.0,84,0.00,,,0.07,Weather View 32 v70,2013-02-14 00:24:00,
2013-02-13 19:34:00,25.0,21.4,29.76,SSW,202,0.0,1.0,86,0.00,,,0.07,Weather View 32 v70,2013-02-14 00:34:00,
2013-02-13 19:39:00,25.0,21.7,29.76,SW,225,0.0,1.0,87,0.00,,,0.07,Weather View 32 v70,2013-02-14 00:39:00,
2013-02-13 19:49:00,25.0,22.0,29.76,SW,225,0.0,1.0,88,0.00,,,0.07,Weather View 32 v70,2013-02-14 00:49:00,
2013-02-13 19:54:00,25.0,22.0,29.76,SE,135,0.0,1.0,88,0.00,,,0.07,Weather View 32 v70,2013-02-14 00:54:00,
2013-02-13 20:04:00,25.0,22.2,29.76,SE,135,0.0,1.0,89,0.00,,,0.07,Weather View 32 v70,2013-02-14 01:04:00,
2013-02-13 20:09:00,24.0,21.2,29.76,SE,135,0.0,1.0,89,0.00,,,0.07,Weather View 32 v70,2013-02-14 01:09:00,
2013-02-13 20:19:00,24.0,21.5,29.76,SSW,202,0.0,0.0,90,0.00,,,0.07,Weather View 32 v70,2013-02-14 01:19:00,
2013-02-13 20:24:00,25.0,22.7,29.76,WSW,248,0.0,0.0,91,0.00,,,0.07,Weather View 32 v70,2013-02-14 01:24:00,
2013-02-13 20:29:00,25.0,22.7,29.76,WSW,248,0.0,0.0,91,0.00,,,0.07,Weather View 32 v70,2013-02-14 01:29:00,
2013-02-13 20:34:00,25.0,22.7,29.75,SSW,202,0.0,0.0,91,0.00,,,0.07,Weather View 32 v70,2013-02-14 01:34:00,
2013-02-13 20:44:00,25.0,22.7,29.75,SE,135,0.0,0.0,91,0.00,,,0.07,Weather View 32 v70,2013-02-14 01:44:00,
2013-02-13 20:49:00,25.0,22.7,29.77,SW,225,0.0,0.0,91,0.00,,,0.07,Weather View 32 v70,2013-02-14 01:49:00,
2013-02-13 20:59:00,25.0,22.7,29.77,SSE,158,0.0,0.0,91,0.00,,,0.07,Weather View 32 v70,2013-02-14 01:59:00,
2013-02-13 21:04:00,25.0,22.7,29.78,SW,225,0.0,1.0,91,0.00,,,0.07,Weather View 32 v70,2013-02-14 02:04:00,
2013-02-13 21:14:00,24.0,21.8,29.77,SW,225,0.0,1.0,91,0.00,,,0.07,Weather View 32 v70,2013-02-14 02:14:00,
2013-02-13 21:19:00,24.0,22.0,29.77,SW,225,0.0,1.0,92,0.00,,,0.07,Weather View 32 v70,2013-02-14 02:19:00,
2013-02-13 21:29:00,24.0,22.0,29.77,SSW,202,0.0,1.0,92,0.00,,,0.07,Weather View 32 v70,2013-02-14 02:29:00,
2013-02-13 21:39:00,24.0,22.3,29.78,SSW,202,0.0,1.0,93,0.00,,,0.07,Weather View 32 v70,2013-02-14 02:39:00,
2013-02-13 21:44:00,24.0,22.5,29.77,SSW,202,0.0,1.0,94,0.00,,,0.07,Weather View 32 v70,2013-02-14 02:44:00,
2013-02-13 21:54:00,23.0,21.5,29.78,SSW,202,0.0,1.0,94,0.00,,,0.07,Weather View 32 v70,2013-02-14 02:54:00,
2013-02-13 22:04:00,23.0,21.5,29.78,SSE,158,0.0,0.0,94,0.00,,,0.07,Weather View 32 v70,2013-02-14 03:04:00,
2013-02-13 22:09:00,23.0,21.5,29.78,South,180,0.0,0.0,94,0.00,,,0.07,Weather View 32 v70,2013-02-14 03:09:00,
2013-02-13 22:19:00,23.0,21.8,29.78,SSW,202,0.0,0.0,95,0.00,,,0.07,Weather View 32 v70,2013-02-14 03:19:00,
2013-02-13 22:29:00,23.0,21.8,29.77,SSW,202,0.0,1.0,95,0.00,,,0.07,Weather View 32 v70,2013-02-14 03:29:00,
2013-02-13 22:40:00,23.0,22.0,29.77,SSE,158,1.0,1.0,96,0.00,,,0.07,Weather View 32 v70,2013-02-14 03:40:00,
2013-02-13 22:49:00,23.0,21.8,29.77,SE,135,0.0,3.0,95,0.00,,,0.07,Weather View 32 v70,2013-02-14 03:49:00,
2013-02-13 22:59:00,23.0,21.8,29.77,SW,225,0.0,3.0,95,0.00,,,0.07,Weather View 32 v70,2013-02-14 03:59:00,
2013-02-13 23:09:00,23.0,21.8,29.77,SSW,202,0.0,3.0,95,0.00,,,0.07,Weather View 32 v70,2013-02-14 04:09:00,
2013-02-13 23:19:00,23.0,22.0,29.76,SSW,202,0.0,3.0,96,0.00,,,0.07,Weather View 32 v70,2013-02-14 04:19:00,
2013-02-13 23:29:00,23.0,22.0,29.77,SSW,202,0.0,3.0,96,0.00,,,0.07,Weather View 32 v70,2013-02-14 04:29:00,
2013-02-13 23:34:00,23.0,22.0,29.76,South,180,0.0,3.0,96,0.00,,,0.07,Weather View 32 v70,2013-02-14 04:34:00,
2013-02-13 23:41:00,23.0,22.0,29.76,South,180,0.0,3.0,96,0.00,,,0.07,Weather View 32 v70,2013-02-14 04:41:00,
2013-02-13 23:49:00,24.0,23.0,29.76,SSE,158,0.0,1.0,96,0.00,,,0.07,Weather View 32 v70,2013-02-14 04:49:00,
2013-02-13 23:59:00,24.0,23.0,29.76,SSE,158,1.0,1.0,96,0.00,,,0.00,Weather View 32 v70,2013-02-14 04:59:00,